Location: *
(42.1160°S, 166.9240°W)
Time: 17:17:22
(UTC+00:00)

Daily predictions for brighter satellites

Satellite Brightness Start Highest point End
(mag) Time Altitude Azimuth Time Altitude Azimuth Time Altitude Azimuth
ATLAS 5 CENTAUR R/B 4.4 14:20:32 21° SSE 14:20:32 21° SSE 14:22:32 10° SSE
Lacrosse 4 Rocket 4.1 14:39:01 18° E 14:39:01 18° E 14:40:56 10° ESE
IDEFIX/ARIANE 42P 4.5 14:37:29 10° NE 14:46:58 13° S 14:47:29 10° S
Milstar 3 Cent rocket 4.4 14:56:28 12° NNE 14:56:28 12° NNE 14:57:36 10° NE
USA 234 3.2 14:53:24 10° SE 15:00:03 74° NE 15:00:30 71° N
Okean-O 4.1 15:02:21 10° NE 15:06:26 36° ESE 15:10:33 10° S
NOAA 6 4.2 15:11:27 10° NNE 15:16:39 73° ESE 15:21:55 10° S
Cosmos 1818 3.6 15:24:10 59° S 15:25:06 73° SE 15:30:28 10° NE
OAO 2 Rocket 4.5 15:25:48 32° NNE 15:25:48 32° NNE 15:30:00 10° ENE
Lacrosse 5 2.7 15:26:48 39° S 15:26:48 39° S 15:30:43 10° SE
USA 229 DEB 3.7 15:27:46 29° SSW 15:31:39 82° SE 15:38:26 10° NE
USA 229 3.7 15:27:49 29° SSW 15:31:45 82° SE 15:38:32 10° NE
NOSS 3-1 (C) 4.1 15:27:51 18° SSW 15:32:36 50° SE 15:38:10 10° ENE
Cosmos 1470 3.5 15:35:22 48° SE 15:35:22 48° SE 15:38:23 10° SSE
BREEZE-M DEB (TANK) 4.1 15:35:06 20° SE 15:35:06 20° SE 15:37:11 10° ESE
Cosmos 2278 4.3 15:35:44 40° SSW 15:35:44 40° SSW 15:40:11 10° SSE
Cosmos 1980 Rocket 2.2 15:32:51 37° NNW 15:35:12 80° ENE 15:40:59 10° SSE
Cosmos 1697 Rocket 2.7 15:37:09 59° SW 15:37:09 59° SW 15:42:39 10° SSE
CZ-2C R/B 2.2 15:33:14 10° NNE 15:37:55 87° ESE 15:42:47 10° SSW
Cosmos 883 Rocket 4.4 15:35:49 10° SSW 15:42:10 64° W 15:48:27 10° N
SL-16 R/B 4.2 15:37:47 10° S 15:40:01 18° SSW 15:40:01 18° SSW
Cosmos 2263 Rocket 3.8 15:44:42 10° S 15:49:43 32° SE 15:54:43 10° ENE
SL-16 R/B 3.8 15:45:13 10° NNE 15:50:18 35° ENE 15:55:26 10° SE
Cosmos 2315 Rocket 3.9 15:49:05 10° SSW 15:55:29 67° W 16:01:47 10° N
Cosmos 1626 3.9 15:53:02 10° S 15:56:32 34° ESE 16:00:00 10° NE
Cosmos 1898 Rocket 3.6 15:58:46 40° WNW 16:00:26 55° WSW 16:05:45 10° SSE
Cosmos 1812 Rocket 3.5 15:59:44 39° NW 16:01:09 62° W 16:05:33 10° S
ATLAS 5 CENTAUR R/B 4.3 16:02:05 14° SSW 16:02:55 14° SSW 16:05:59 10° S
CZ-4 R/B 3.9 16:00:43 10° ENE 16:03:48 21° ESE 16:06:52 10° SSE
Cosmos 2322 Rocket 3.4 15:59:25 10° N 16:04:43 44° ENE 16:10:04 10° SE
Cosmos 1937 Rocket 3.4 16:04:57 21° NW 16:08:26 64° WSW 16:13:39 10° SSE
Cosmos 1244 Rocket 4.4 16:05:55 10° NNW 16:12:12 74° W 16:18:38 10° S
COSMOS 2455 4.4 16:15:54 17° NW 16:15:54 17° NW 16:18:03 10° NNW
Cosmos 1953 3.6 16:17:00 25° SW 16:17:00 25° SW 16:19:19 10° SSW
Lacrosse 4 Rocket 2.0 16:15:24 37° WSW 16:16:03 39° SW 16:20:10 10° SSE
Meteor 1-21 Rocket 4.4 16:14:33 10° SSW 16:19:55 45° W 16:25:09 10° NNW
USA 161 1.8 16:17:33 10° SSE 16:20:11 62° ENE 16:22:59 10° N
Cosmos 2227 4.1 16:15:00 10° SSW 16:20:46 71° WNW 16:26:26 10° NNE
SL-08 R/B 4.5 16:14:49 10° N 16:20:57 87° E 16:27:10 10° S
Cosmos 990 Rocket 4.2 16:17:31 16° NW 16:21:32 50° WSW 16:26:44 10° S
SJ 16-02 2.2 16:17:36 10° N 16:21:57 54° ENE 16:26:20 10° SSE
IDEFIX/ARIANE 42P 3.9 16:17:53 10° NNW 16:27:49 - SSW 16:20:23 21° WNW
Cosmos 1745 Rocket 4.3 16:18:06 10° N 16:24:27 75° E 16:30:54 10° S
MSX 4.3 16:20:59 10° NNW 16:26:16 37° W 16:31:38 10° SSW
SJ-7 4.4 16:24:38 10° NNE 16:28:55 88° WNW 16:33:12 10° SSW
ATLAS 3B CENTAUR R/B 4.3 16:25:12 13° NW 16:30:26 29° N 16:42:29 10° NE
CSL-04 Rocket 4.0 16:27:18 10° NNE 16:32:41 71° ESE 16:38:05 10° S
Nadezhda 1 Rocket 4.1 16:27:36 10° S 16:33:59 80° E 16:40:10 10° N
SJ-12 4.4 16:31:06 10° NNW 16:35:01 39° W 16:39:00 10° SSW
Cosmos 1867 3.8 16:30:53 15° WNW 16:35:08 49° SW 16:40:25 10° SSE
Cosmos 1484 Rocket 2.8 16:34:22 10° N 16:38:08 54° W 16:42:02 10° SSW
Cosmos 1703 3.8 16:35:49 10° S 16:39:45 61° E 16:43:39 10° NNE
USA 234 3.8 16:36:39 10° SE 16:42:45 41° SSW 16:47:50 15° W
Okean-O 3.8 16:39:31 10° NW 16:42:59 22° W 16:46:30 10° SW
Cosmos 1766 Rocket 3.7 16:38:47 10° S 16:43:23 86° E 16:47:52 10° N
Cosmos 2150 Rocket 4.3 16:38:32 10° NW 16:43:38 44° WSW 16:48:42 10° S
BREEZE-M DEB (TANK) 3.7 16:39:24 17° W 16:43:54 45° SSW 16:48:13 10° SE
Cosmos 2058 4.1 16:41:19 10° S 16:45:21 45° ESE 16:49:19 10° NNE
Cosmos 2285 Rocket 4.0 16:39:06 10° SSW 16:45:32 75° WNW 16:51:57 10° N
SL-14 R/B 4.4 16:46:50 10° SW 16:50:09 24° W 16:53:26 10° NW
AQUARIUS 4.2 16:48:12 10° N 16:52:43 67° WNW 16:57:17 10° SSW
BREEZE-M DEB (TANK) 2.5 16:47:57 10° WNW 16:55:24 79° SSW 16:58:12 10° ESE
ATLAS 2AS CENTAUR R/B 4.4 16:52:06 10° SSW 16:56:58 23° SE 17:02:03 10° E
Cosmos-2242 3.0 16:54:05 10° NNW 16:58:20 63° W 17:02:42 10° S
YAOGAN 1 3.1 16:54:43 10° NNE 16:59:02 64° ESE 17:03:25 10° S
METEOR-M 4.1 16:54:01 10° NNE 16:59:25 84° WNW 17:04:52 10° SSW
GP-B 3.2 16:57:21 10° N 17:01:47 59° W 17:06:16 10° S
Intercosmos 25 Rocket 4.4 16:59:42 10° SSW 17:03:23 24° W 17:06:16 10° NW
Cosmos 1709 Rocket 4.3 16:58:55 10° N 17:05:18 77° E 17:11:44 10° S
Meteor 1-28 Rocket 4.0 17:03:45 10° S 17:07:07 31° WSW 17:10:27 10° NW
Okean 3 Rocket 4.4 17:03:25 10° SSW 17:07:19 29° W 17:11:11 10° NNW
COSMO-SKYMED 1 3.1 17:04:16 10° SSE 17:08:40 65° E 17:13:01 10° N
FENGYUN 3A 3.9 17:04:22 10° NNE 17:09:48 80° ESE 17:15:19 10° S
OAO 2 Rocket 4.4 17:05:16 10° WNW 17:09:49 36° N 17:14:25 10° ENE
Lacrosse 5 3.7 17:06:26 10° WSW 17:09:55 18° SSW 17:13:23 10° SSE
Cosmos 44 3.7 17:06:08 10° NNW 17:11:21 76° ENE 17:16:22 10° SE
Cosmos 2292 Rocket 4.4 17:08:40 10° NW 17:12:14 31° WSW 17:16:49 10° S
Aureole 2 Rocket 2.0 17:11:07 10° NW 17:13:56 49° WSW 17:16:41 10° S
Cosmos 1048 Rocket 4.0 17:11:07 10° SSW 17:16:24 67° WNW 17:21:34 10° N
Cosmos 2360 Rocket 2.6 17:11:02 10° NNW 17:16:42 74° ENE 17:22:25 10° SSE
SMAP 3.7 17:13:57 10° NNW 17:18:15 36° W 17:22:37 10° SSW
ASTEX 1 3.7 17:13:56 10° S 17:19:00 79° E 17:23:59 10° N
Cosmos 1980 Rocket 3.6 17:16:01 10° W 17:19:55 18° SW 17:23:50 10° S
Cosmos 1269 Rocket 4.1 17:16:28 10° SSW 17:21:50 82° WNW 17:27:08 10° NNE
NOSS 3-1 (C) 4.2 17:17:50 10° SW 17:23:01 29° WNW 17:27:46 10° N
